SCP
0 0 0 0 0 0 0 0 0 0 0 0 0 0 0 0 0 0 0 0 0 0 0 0 0 0 0 0 0 0 0 0 0 0 0 0 0 0 0 0 0 0 0 0
0 0 0 0 0 0 0 0 0 0 0 0 0 0 0 0 0 0 0 0 0 0 0 0 0 0 0 0 0 0 0 0 0 0 0 0 0 0 0 0 0 0 0 0
0 0 0 0 0 0 0 0 0 0 0 0 0 0 0 0 0 0 0 0 0 0 0 0 0 0 0 0 0 0 0 0 0 0 0 0 0 0 0 0 0 0 0 0
0 0 0 0 0 0 0 0 0 0 0 0 0 0 0 0 0 0 0 0 0 0 0 0 0 0 0 0 0 0 0 0 0 0 0 0 0 0 0 0 0 0 0 0
0 0 0 0 0 0 0 0 0 0 0 0 0 0 0 0 0 0 0 0 0 0 0 0 0 0 0 0 0 0 0 0 0 0 0 0 0 0 0 0 0 0 0 0
0 0 0 0 0 0 0 0 0 0 0 0 0 0 0 0 0 0 0 0 0 0 0 0 0 0 0 0 0 0 0 0 0 0 0 0 0 0 0 0 0 0 0 0
0 0 0 0 0 0 0 0 0 0 0 0 0 0 0 0 0 0 0 0 0 0 0 0 0 0 0 0 0 0 0 0 0 0 0 0 0 0 0 0 0 0 0 0
0 0 0 0 0 0 0 0 0 0 0 0 0 0 0 0 0 0 0 0 0 0 0 0 0 0 0 0 0 0 0 0 0 0 0 0 0 0 0 0 0 0 0 0
0 0 0 0 0 0 0 0 0 0 0 0 0 0 0 0 0 0 0 0 0 0 0 0 0 0 0 0 0 0 0 0 0 0 0 0 0 0 0 0 0 0 0 0
0 0 0 0 0 0 0 0 0 0 0 0 0 0 0 0 0 0 0 0 0 0 0 0 0 0 0 0 0 0 0 0 0 0 0 0 0 0 0 0 0 0 0 0
0 0 0 0 0 0 0 0 0 0 0 0 0 0 0 0 0 0 0 0 0 0 0 0 0 0 0 0 0 0 0 0 0 0 0 0 0 0 0 0 0 0 0 0
0 0 0 0 0 0 0 0 0 0 0 0 0 0 0 0 0 0 0 0 0 0 0 0 0 0 0 0 0 0 0 0 0 0 0 0 0 0 0 0 0 0 0 0
0 0 0 0 0 0 0 0 0 0 0 0 0 0 0 0 0 0 0 0 0 0 0 0 0 0 0 0 0 0 0 0 0 0 0 0 0 0 0 0 0 0 0 0
0 0 0 0 0 0 0 0 0 0 0 0 0 0 0 0 0 0 0 0 0 0 0 0 0 0 0 0 0 0 0 0 0 0 0 0 0 0 0 0 0 0 0 0
0 0 0 0 0 0 0 0 0 0 0 0 0 0 0 0 0 0 0 0 0 0 0 0 0 0 0 0 0 0 0 0 0 0 0 0 0 0 0 0 0 0 0 0
0 0 0 0 0 0 0 0 0 0 0 0 0 0 0 0 0 0 0 0 0 0 0 0 0 0 0 0 0 0 0 0 0 0 0 0 0 0 0 0 0 0 0 0
0 0 0 0 0 0 0 0 0 0 0 0 0 0 0 0 0 0 0 0 0 0 0 0 0 0 0 0 0 0 0 0 0 0 0 0 0 0 0 0 0 0 0 0
0 0 0 0 0 0 0 0 0 0 0 0 0 0 0 0 0 0 0 0 0 0 0 0 0 0 0 0 0 0 0 0 0 0 0 0 0 0 0 0 0 0 0 0
0 0 0 0 0 0 0 0 0 0 0 0 0 0 0 0 0 0 0 0 0 0 0 0 0 0 0 0 0 0 0 0 0 0 0 0 0 0 0 0 0 0 0 0
0 0 0 0 0 0 0 0 0 0 0 0 0 0 0 0 0 0 0 0 0 0 0 0 0 0 0 0 0 0 0 0 0 0 0 0 0 0 0 0 0 0 0 0
0 0 0 0 0 0 0 0 0 0 0 0 0 0 0 0 0 0 0 0 0 0 0 0 0 0 0 0 0 0 0 0 0 0 0 0 0 0 0 0 0 0 0 0
0 0 0 0 0 0 0 0 0 0 0 0 0 0 0 0 0 0 0 0 0 0 0 0 0 0 0 0 0 0 0 0 0 0 0 0 0 0 0 0 0 0 0 0
0 0 0 0 0 0 0 0 0 0 0 0 0 0 0 0 0 0 0 0 0 0 0 0 0 0 0 0 0 0 0 0 0 0 0 0 0 0 0 0 0 0 0 0
0 0 0 0 0 0 0 0 0 0 0 0 0 0 0 0 0 0 0 0 0 0 0 0 0 0 0 0 0 0 0 0 0 0 0 0 0 0 0 0 0 0 0 0
0 0 0 0 0 0 0 0 0 0 0 0 0 0 0 0 0 0 0 0 0 0 0 0 0 0 0 0 0 0 0 0 0 0 0 0 0 0 0 0 0 0 0 0
0 0 0 0 0 0 0 0 0 0 0 0 0 0 0 0 0 0 0 0 0 0 0 0 0 0 0 0 0 0 0 0 0 0 0 0 0 0 0 0 0 0 0 0
0 0 0 0 0 0 0 0 0 0 0 0 0 0 0 0 0 0 0 0 0 0 0 0 0 0 0 0 0 0 0 0 0 0 0 0 0 0 0 0 0 0 0 0
Wind_Speed
5 4 4 6 9 11 12 11 10 9 10 11 8 5 4 3 2 2 2 2 3 4 3 3 3 2 2 2 1 2 3 2 1 0 1 1 1 2 3 3 4 4 4 5
4 4 4 7 10 13 13 11 11 9 12 9 6 2 2 3 3 3 3 3 4 4 4 3 3 3 2 1 1 2 2 1 0 0 1 1 2 3 3 4 4 4 4 5
3 2 1 9 12 14 10 9 10 13 13 5 4 5 5 5 5 5 4 4 4 4 4 3 3 3 3 2 1 2 1 1 0 0 1 2 3 3 4 4 4 4 5 5
1 2 8 7 3 8 9 8 9 8 6 6 7 5 3 3 4 4 3 4 4 3 3 2 2 2 2 2 2 1 1 0 0 0 1 2 2 3 4 4 4 4 5 5
3 4 7 6 3 4 6 6 6 8 6 4 2 1 2 1 3 3 3 3 4 3 3 3 2 2 3 2 2 2 1 1 1 1 1 2 3 3 4 4 4 4 5 5
4 4 7 5 2 1 3 4 2 3 4 3 3 2 4 1 2 2 3 3 3 3 3 3 2 3 3 2 1 0 1 1 1 1 1 2 3 3 3 3 4 5 5 5
5 5 6 4 4 1 4 4 1 2 2 2 4 4 2 2 2 3 3 3 3 3 3 2 2 3 3 2 1 1 1 1 1 1 2 2 2 3 3 4 4 5 5 5
4 5 7 3 2 3 3 1 0 1 2 3 2 2 2 2 3 3 3 3 3 3 2 1 1 3 2 1 1 0 1 1 1 2 2 2 2 3 3 3 4 5 5 5
5 5 3 1 2 2 1 1 1 1 1 3 2 2 2 2 3 3 3 2 2 3 2 1 1 2 2 0 0 1 1 1 2 2 2 2 2 3 3 3 3 4 4 5
2 4 3 3 3 2 1 1 1 1 1 2 2 3 3 3 2 2 2 2 2 3 2 1 1 2 1 0 1 1 1 1 2 2 2 2 2 2 2 3 3 4 4 5
4 4 4 4 3 2 1 1 1 1 1 2 3 2 3 3 2 2 2 1 2 2 2 1 1 1 1 1 1 1 1 1 2 2 2 2 2 2 3 3 4 5 4 4
5 4 3 4 3 2 2 1 1 1 1 1 2 3 2 2 2 2 2 1 1 1 1 1 1 1 1 1 0 0 1 2 2 2 2 2 3 4 5 6 9 9 9 8
4 4 4 5 5 3 2 2 0 1 1 1 1 2 3 3 2 2 2 1 1 1 1 1 1 1 2 1 1 1 1 2 2 2 2 3 3 3 5 7 8 9 10 11
4 3 3 4 4 3 1 1 2 2 2 2 2 3 3 3 2 2 1 1 1 1 1 1 0 1 2 1 1 1 1 2 2 2 2 2 3 3 3 4 6 5 7 10
3 2 3 3 2 2 1 2 3 2 2 2 2 2 3 3 2 1 1 1 1 1 1 0 0 2 2 1 1 2 2 2 2 2 2 2 2 3 3 4 4 5 5 6
3 2 1 1 1 2 2 2 2 1 1 1 1 1 2 2 2 1 1 2 2 1 0 0 1 2 2 1 1 1 2 3 3 2 2 2 2 2 3 3 4 4 5 5
2 2 2 2 2 2 2 1 0 0 0 1 1 1 2 3 2 2 1 1 1 0 0 1 2 2 2 1 1 1 1 2 4 2 2 2 2 2 3 3 3 4 4 5
1 1 1 1 0 1 1 1 1 1 1 0 1 2 2 2 1 1 0 1 2 2 2 1 1 1 2 2 1 1 1 1 2 2 2 2 2 2 2 3 4 4 4 5
4 3 3 3 2 2 2 2 2 1 1 1 2 2 1 1 1 1 1 1 1 1 2 2 3 2 2 3 2 1 1 1 2 2 2 3 3 2 2 3 3 4 4 4
4 4 4 4 5 3 3 2 2 2 2 2 2 2 2 1 1 1 1 0 1 2 2 2 2 1 2 2 3 1 1 1 2 2 2 2 2 3 3 3 3 4 4 4
4 4 4 4 4 4 3 3 3 3 3 2 2 1 1 1 1 1 0 1 2 2 2 3 2 1 2 2 3 1 1 1 2 2 2 2 3 3 3 3 3 4 4 4
3 3 3 3 4 4 4 3 3 3 3 3 2 2 1 1 2 2 1 1 2 3 2 1 1 3 3 3 1 1 1 2 2 2 2 2 2 3 3 3 3 4 4 4
2 2 3 3 3 3 4 4 4 3 3 3 3 2 2 1 1 1 2 2 2 3 3 2 3 5 4 2 1 1 2 2 2 2 2 2 2 3 3 3 3 4 4 4
3 3 3 2 2 3 4 4 4 3 3 3 3 2 2 2 2 1 1 4 4 5 3 3 5 6 5 2 1 1 2 2 2 2 2 2 2 2 3 3 3 3 4 4
3 3 3 3 3 2 2 2 3 3 3 3 3 3 2 1 1 2 2 2 4 4 3 4 6 6 4 2 2 2 2 2 2 2 2 2 2 3 3 3 3 3 4 4
2 2 2 2 1 1 1 2 2 2 2 2 3 3 3 2 2 2 2 2 3 4 3 2 3 3 2 2 2 3 2 3 3 3 3 3 3 3 3 3 4 4 4 4
3 2 2 2 2 2 2 2 2 2 2 2 2 3 3 3 2 2 3 2 2 2 2 2 2 2 2 2 2 3 3 2 2 2 2 2 3 3 3 4 3 3 3 4
Wind_Direction
248 246 203 215 209 199 207 211 214 230 237 255 257 256 258 251 242 230 230 205 178 168 163 152 143 138 136 137 140 133 120 111 117 42 347 346 338 327 324 322 320 310 306 301
257 245 232 243 231 219 222 222 229 241 254 254 267 266 258 246 222 223 223 209 187 169 160 164 165 158 142 141 138 119 123 139 129 63 357 337 327 327 330 327 323 319 309 303
246 237 235 250 224 216 216 212 203 228 242 238 251 242 230 224 218 217 220 198 179 176 174 173 169 158 162 169 138 129 137 130 81 47 341 323 328 335 328 320 320 317 308 304
201 165 231 243 223 205 213 232 221 226 235 223 225 233 232 212 203 217 206 176 169 165 160 153 137 134 135 127 124 120 93 42 357 345 319 321 329 323 317 316 315 310 310 306
189 222 267 286 256 190 198 245 231 226 236 233 218 43 318 246 186 199 186 165 161 157 152 140 134 134 118 102 96 86 58 305 289 288 302 313 316 313 312 314 315 310 306 306
193 209 238 256 287 261 151 258 265 204 220 213 147 187 251 213 149 141 126 124 128 123 116 120 129 125 116 115 102 116 271 287 303 301 294 299 302 305 308 310 308 311 310 304
214 228 256 275 294 116 173 243 273 185 196 181 186 203 187 127 117 119 114 112 115 114 119 138 137 128 126 126 186 255 314 335 333 321 305 295 302 308 313 315 317 317 312 305
192 216 247 309 84 168 222 282 209 192 198 188 184 140 125 127 122 111 103 99 106 107 96 86 128 135 133 166 239 20 22 341 325 319 315 324 322 317 316 317 319 320 320 316
197 220 264 244 227 263 250 240 270 237 223 172 162 166 156 138 122 115 115 116 116 119 107 65 97 131 138 229 43 45 16 333 322 328 326 318 310 311 316 316 316 317 318 316
242 265 283 291 295 310 317 263 276 250 196 156 160 162 151 137 123 115 110 116 111 107 99 59 48 63 99 22 46 53 359 332 329 329 323 320 313 306 305 306 305 306 309 309
246 271 304 303 284 278 312 355 11 25 92 140 136 144 149 145 143 140 127 115 118 126 131 137 93 59 29 27 54 27 346 332 327 320 314 313 312 301 298 283 289 301 296 297
240 240 230 266 292 309 301 294 235 150 78 92 138 151 145 143 139 132 127 117 112 117 132 145 107 31 6 1 41 26 327 322 313 311 311 311 312 316 314 313 316 317 314 309
252 274 266 277 300 303 276 277 264 133 152 126 109 134 134 131 121 115 114 124 145 164 161 143 77 356 336 334 330 301 290 297 299 305 306 308 312 315 317 324 325 326 328 329
288 281 284 286 294 314 315 27 71 63 65 96 113 115 119 120 117 120 152 188 159 129 120 111 45 327 320 324 320 311 303 292 299 290 290 292 293 297 303 311 318 320 324 328
322 288 253 281 322 342 1 73 81 72 70 64 93 122 137 145 154 171 176 119 102 96 80 65 6 322 325 325 316 304 298 291 290 287 287 289 292 297 302 305 307 311 319 324
326 350 16 30 19 27 43 60 85 86 86 92 101 120 141 142 138 124 104 114 123 132 294 312 302 305 318 322 317 311 301 306 318 311 306 306 306 307 308 307 308 310 314 318
324 335 352 353 360 10 17 21 72 163 118 124 145 132 120 114 103 90 72 70 102 136 294 288 297 315 325 313 296 295 304 308 318 320 310 305 304 303 304 306 306 306 307 314
324 320 319 294 287 356 7 18 38 56 64 76 96 102 110 119 131 134 61 54 53 28 359 324 318 335 326 314 307 304 304 304 307 303 304 303 304 302 300 299 302 306 312 317
28 32 33 37 40 58 51 35 32 41 47 75 92 97 102 107 118 117 89 74 56 340 319 325 343 350 323 318 341 330 311 306 306 307 306 308 314 311 306 306 307 309 312 315
30 37 44 42 40 44 41 36 44 47 41 64 82 80 71 59 68 85 87 18 281 268 283 313 327 316 311 314 340 329 311 300 300 307 310 307 306 308 308 309 310 311 314 315
28 34 41 42 39 36 34 35 48 43 32 46 71 82 64 15 18 53 90 314 312 321 318 330 336 311 304 320 341 337 320 310 307 305 305 304 304 306 309 311 313 314 315 316
18 27 32 38 43 32 23 30 41 44 40 41 47 58 54 22 6 358 328 272 295 326 340 323 308 304 315 338 349 336 326 316 312 309 305 303 303 305 308 311 311 312 313 313
21 32 39 41 45 38 30 33 34 40 41 36 33 30 23 356 341 337 324 319 312 325 339 315 310 319 338 1 6 346 327 319 312 305 299 296 295 297 299 303 304 305 307 309
36 40 41 41 53 58 42 25 27 33 33 24 18 11 8 359 345 329 293 311 328 335 338 320 329 337 354 11 347 327 315 308 302 296 294 295 294 295 295 297 300 302 303 307
43 43 45 47 49 43 33 27 30 28 26 20 8 3 360 347 309 314 320 322 334 345 342 335 341 348 356 342 330 316 309 301 296 297 295 297 297 297 297 297 298 301 303 305
40 39 35 35 34 20 14 23 26 15 14 9 359 355 354 352 345 336 339 340 339 342 344 336 333 339 333 322 317 311 305 306 313 310 297 293 292 292 293 297 300 297 298 301
41 38 36 30 23 18 17 23 19 360 354 348 338 338 343 346 351 354 349 344 341 339 331 325 321 319 317 314 310 304 300 297 294 293 292 290 289 289 291 292 293 294 296 298